Powrót do katalogu

STARLINK-38015

AktywnyŁącznośćSSO
NORAD 69726·PAYLOAD·🇺🇸 United States

Wystrzelony Jun 28, 2026 z Vandenberg Space Force Base

Loading…

Następne Przeloty (najbliższe 24 godziny)

TLE

ŚwieżeSource: CelesTrak SupGP

Epoka: Sep 15, 2026, 03:03 UTC

1 69726C 26147Y   26258.12756944 -.00042568  00000+0 -28597-3 0  2589
2 69726  97.2836 297.6192 0001285  87.7702 161.3403 15.75213145    13

Śledź STARLINK-38015 w czasie rzeczywistym z AllMySat

Download on the App Store